Regional Weather Roundup
Issued by NWS Grand Forks, ND

Home | Current Version | Previous Version | Graphics & Text | Print | Product List | Glossary On
Versions: 1 2 3 4 5 6 7 8 9 10 11 12 13 14 15 16 17 18 19 20 21 22 23 24 25 26 27 28 29 30 31 32 33 34 35 36 37 38 39 40 41 42 43 44 45 46 47 48 49 50
000
ASUS43 KFGF 251631
RWRFGF
PRAIRIE TO PINES  WEATHER ROUNDUP
NATIONAL WEATHER SERVICE EASTERN NORTH DAKOTA/GRAND FORKS ND
1100 AM CDT MON JUL 25 2016

 **SATELLITE DATA USED TO AUGMENT SKY COVER AT AUTOMATED STATIONS**
 *****  WEATHER ACROSS EASTERN NORTH DAKOTA  *****

CITY           SKY/WX    TMP DP  RH WIND       PRES   REMARKS
GRAND FORKS    SUNNY     80  58  46 VRB3      30.01S
GRAND FRKS AFB SUNNY     80  59  49 SW6       30.02S
GRAND FRKS NWS   N/A     81 N/A N/A SE3         N/A
DEVILS LAKE    SUNNY     76  62  62 SE8       30.01F
FARGO          SUNNY     79  59  50 S7        30.04F
WAHPETON ARPT  SUNNY     79  55  44 S3        30.05F
$$

 ***** WEATHER ACROSS CENTRAL AND WESTERN NORTH DAKOTA  *****

CITY           SKY/WX    TMP DP  RH WIND       PRES   REMARKS
BISMARCK       SUNNY     81  63  54 SW8       29.99F
MINOT          SUNNY     82  61  48 SE7       29.97S
JAMESTOWN      SUNNY     79  64  60 S10       30.01F
MINOT AFB      SUNNY     79  60  52 VRB7      29.96S
GARRISON         N/A     76  61  59 CALM      29.98S
WILLISTON      SUNNY     80  56  43 N3        29.98S
DICKINSON      SUNNY     82  54  37 NW7       29.99S
HETTINGER      SUNNY     88  53  30 VRB6      30.03F
$$

 *****  OTHER AIRPORT OBSERVATIONS IN OUR AREA  *****

CITY           SKY/WX    TMP DP  RH WIND       PRES   REMARKS
WALHALLA       FAIR      77  73  88 W3        30.00S
GRAFTON AIRPOR FAIR      79  61  53 SW7       30.02S
VALLEY CITY AR FAIR      81  64  57 S8        30.05S
CANDO          FAIR      77  63  61 S8        30.03S
CAVALIER APRT  FAIR      77  61  57 W3        29.99F
GWINNER        FAIR      81  66  61 S9        30.05F
SHEYENNE NWR     N/A     83  61  46 S7        29.95
ROLLA            N/A     75  59  57 S6        30.03S
 ***** THE ABOVE OBSERVATIONS ARE NON NWS ARE NOT QUALITY
       CONTROLLED AND MAY MIS-REPORT RAIN FOR SNOW...
$$

  *****  WEATHER ACROSS NORTHERN MINNESOTA  *****

CITY           SKY/WX    TMP DP  RH WIND       PRES   REMARKS
FLAG ISLAND    PTSUNNY   75  61  60 W5        29.97S
WARROAD        SUNNY     75  66  73 W8        30.00S
ROSEAU         SUNNY     77  66  69 W9        30.00S
HALLOCK        SUNNY     75  63  64 SW6       29.99S
THF RVR FALLS  SUNNY     74  63  68 SW6       30.04S
BAUDETTE       SUNNY     77  62  59 VRB6      30.00S
WASKISH        SUNNY     75  64  69 W10       30.03S
CROOKSTON      SUNNY     77  61  57 SW6       30.03F
STEPHEN NDAWN    N/A     77  64  65 SW3         N/A
GREENBUSH NDAW   N/A     77  63  61 W7          N/A
$$
  *****  WEATHER ACROSS CENTRAL AND WEST MINNESOTA  *****

CITY           SKY/WX    TMP DP  RH WIND       PRES   REMARKS
FOSSTON        SUNNY     75  63  64 S6        30.06S
BEMIDJI        SUNNY     75  59  57 W6        30.05S
PARK RAPIDS    SUNNY     78  57  48 W10       30.07S
ELBOW LAKE     FAIR      76  63  62 SW3       30.08F
WADENA         SUNNY     75  61  60 W6        30.07S
DETROIT LAKES  SUNNY     77  59  53 W7        30.08S
MOORHEAD       SUNNY     79  61  53 S6        30.05F
FERGUS FALLS   SUNNY     77  63  61 SW3       30.08S
MORRIS MN      SUNNY     81  63  54 SW3       30.08R
STAPLES        SUNNY     79  57  47 W5        30.07F
$$
  *****  WEATHER ELSEWHERE ACROSS MINNESOTA  *****

CITY           SKY/WX    TMP DP  RH WIND       PRES   REMARKS
DULUTH         MOSUNNY   75  61  61 W12       30.04S
INTRNTL FALLS  MOSUNNY   75  61  61 W9        30.00S
ELY            PTSUNNY   72  57  60 W14G20    30.01S
CLOQUET        MOSUNNY   75  57  53 NW10      30.05R
WHEATON        SUNNY     82  66  57 SE7       30.08S
BRAINERD       SUNNY     76  61  59 NW7       30.07S
HIBBING        SUNNY     73  60  63 W8        30.03S
ALEXANDRIA     SUNNY     79  57  46 W8        30.10S
SAINT CLOUD    SUNNY     78  62  57 NW7       30.07F
MINNEAPOLIS    SUNNY     81  61  50 NW8       30.07F
$$

  *****  WEATHER ACROSS SOUTH DAKOTA  *****

CITY           SKY/WX    TMP DP  RH WIND       PRES   REMARKS
SIOUX FALLS    MOSUNNY   79  62  56 SW5       30.13S
BROOKINGS      SUNNY     80  65  59 SW6       30.13S
WATERTOWN      SUNNY     81  62  52 SW12      30.11S
HURON          SUNNY     83  61  47 S14       30.09S
SISSETON         N/A     83  61  47 VRB5      30.05F
ABERDEEN       SUNNY     81  63  54 S10       30.06F
MITCHELL       SUNNY     83  61  47 S8        30.12S
PIERRE         SUNNY     87  58  37 S18       30.04F
MOBRIDGE       SUNNY     85  61  44 S12       30.01F
RAPID CITY     SUNNY     82  57  42 S15G23    30.08F
$$

  *****  SOME WEATHER IN NEARBY STATES *****

CITY           SKY/WX    TMP DP  RH WIND       PRES   REMARKS
GLASGOW MT     SUNNY     76  57  51 S6        30.00R
GREAT FALLS MT SUNNY     75  44  33 SW8       30.11R
CHEYENNE WY    SUNNY     73  58  59 S9        30.25S
SCOTTSBLUFF NE SUNNY     78  55  44 S13G22    30.16F
OMAHA NE       MOSUNNY   80  65  59 S7        30.13S
DES MOINES IA  PTSUNNY   84  61  45 NE6       30.09R
DAVENPORT IA   SUNNY     80  68  66 NW12      30.04S
CHICAGO IL     CLOUDY    82  64  54 N9        30.00S
EAU CLAIRE WI  SUNNY     78  64  61 NW6       30.05S
LA CROSSE WI   SUNNY     81  64  56 NW6       30.04F
$$

  *****  SOME NATIONAL WEATHER *****

CITY           SKY/WX    TMP DP  RH WIND       PRES   REMARKS
LA GUARDIA NY  MOSUNNY   86  72  62 SW12G17   29.90F HX  92
RALEIGH NC     MOSUNNY   92  78  63 S6        30.05S HX 107
ATLANTA GA     MOSUNNY   92  71  50 NW7       30.09F HX  98
NEW ORLEANS LA PTSUNNY   89  78  70 NE10      29.97S HX 103
OKLAHOMA CITY  CLOUDY    87  70  56 NE5       30.04S HX  92
ALBUQUERQUE NM MOSUNNY   83  52  34 NE5       30.27S
SALT LAKE CITY MOSUNNY   86  38  18 E7        30.08S
LOS ANGELES CA MOSUNNY   77  65  66 CALM      29.98R
BOISE ID       SUNNY     79  37  22 SW6       30.04R
SEATTLE WA     MOSUNNY   68  58  70 CALM      30.10R
$$

*** WEATHER ACROSS MANITOBA...SASKATCHEWAN AND ONTARIO ***
                ***ONTARIO***

CITY           SKY/WX    TMP DP  RH WIND       PRES   REMARKS
GERALDTON      PTSUNNY   66  59  77 NW8       29.80R
THUNDER BAY    MOSUNNY   75  59  57 NW12G22   29.89R
SIOUX LOOKOUT  MOSUNNY   72  61  68 NW12      29.93R
TORONTO        CLOUDY    79  73  83 SW10      29.84R
BIG TROUT LK   PTSUNNY   66  59  77 W14G20    29.74R
PICKLE LAKE    PTSUNNY   68  59  73 W14G23    29.84R
DRYDEN         PTSUNNY   72  59  64 W14       29.95S
KENORA         MOSUNNY   73  63  68 W10       29.98R
$$
                *** MANITOBA***

CITY           SKY/WX    TMP DP  RH WIND       PRES   REMARKS
BRANDON        SUNNY     77  59  53 NW5       29.99S
DAUPHIN        SUNNY     75  61  60 W15       29.95R
ISLAND LAKE    MOSUNNY   75  64  69 SW3       29.76F
PILOT MOUND      N/A     73  59  60 SW5         N/A
THE PAS        MOSUNNY   73  50  43 NW20G26   29.83R
THOMPSON       MOSUNNY   70  59  68 W9        29.66S
WINNIPEG       SUNNY     75  64  69 W9        29.96S
LYNN LAKE      PTSUNNY   61  54  77 MISG      29.72R
CHURCHILL      CLOUDY    54  52  94 S12       29.68F
GILLAM         PTSUNNY   72  59  64 S7        29.65F
$$
                ***SASKATCHEWAN***

CITY           SKY/WX    TMP DP  RH WIND       PRES   REMARKS
ESTEVAN        SUNNY     77  64  65 E7        29.99S
KINDERSLEY     MOSUNNY   72  57  60 N10       30.06R
LLOYDMINSTER   MOSUNNY   66  54  63 NW10      30.06R
PRINCE ALBERT  MOSUNNY   70  57  64 NW9       29.98R
REGINA         MOSUNNY   73  61  64 S7        29.98F
YORKTON        SUNNY     73  61  64 W8        29.98F
N. BATTLEFORD  SUNNY     70  57  64 NW9       30.05R
LA RONGE       MOSUNNY   68  52  56 W16G22    29.91R
SASKATOON      MOSUNNY   72  59  64 NW9       30.03R
SWIFT CURRENT  SUNNY     73  61  64 NE14G22   30.04R
$$
NOTE: THESE ARE AUTOMATED STATIONS WITH LIMITED QUALITY CONTROL
      "FAIR" INDICATES FEW OR NO CLOUDS BELOW 12,000 FEET WITH NO
      SIGNIFICANT WEATHER AND/OR OBSTRUCTIONS TO VISIBILITY.
      SKY/WX - SKY CONDITION AND SIGNIFICANT WEATHER.
      TMP - AIR TEMPERATURE.    DP   - DEWPOINT TEMPERATURE.
      RH  - RELATIVE HUMIDITY.  PRES - PRESSURE.
      HX  - HEAT INDEX.         WCI  - WIND CHILL INDEX.
$



USA.gov is the U.S. government's official web portal to all federal, state and local government web resources and services.